Terminal Aerodrome Forecast
Issued by NWS Denver/Boulder, CO

Home | Current Version | Previous Version | Text Only | Print | Product List | Glossary On
Versions: 1 2 3 4 5 6 7 8 9 10 11 12 13 14 15 16 17 18 19 20 21 22 23 24 25 26 27 28 29 30 31 32 33 34 35 36 37 38 39 40 41 42 43 44 45 46 47 48 49 50
000
FTUS45 KBOU 151459 AAB
TAFDEN
TAF AMD
KDEN 151459Z 1515/1618 15008KT P6SM FEW005 BKN080
     FM151700 36014G21KT P6SM SCT080 BKN140
     FM152300 07007KT P6SM FEW140 SCT200
     FM160300 16006KT P6SM SCT200
     FM160900 18006KT P6SM VCFG FEW005 BKN200
     FM161300 17007KT P6SM BKN180=

USA.gov is the U.S. government's official web portal to all federal, state and local government web resources and services.